Regional Weather Roundup
Issued by NWS Sterling, VA

Home | Current Version | Previous Version | Text Only | Print | Product List | Glossary On
Versions: 1 2 3 4 5 6 7 8 9 10 11 12 13 14 15 16 17 18 19 20 21 22 23 24 25 26 27
000
ASUS41 KLWX 101310
RWRLWX

REGIONAL WEATHER ROUNDUP
NATIONAL WEATHER SERVICE BALTIMORE MD/WASHINGTON DC
800 AM EST SAT DEC 10 2016

Note: "FAIR" indicates few or no clouds below 12,000 feet
with no significant weather and/or obstructions to visibility.
 TC=TEMPERATURE CELSIUS

 * =Non NWS site. Station does not report precipitation (e.g. rain,
    snow, etc.), thunder, or fog.

DCZ001-MDZ009-015-VAZ040>042-051-053>054-101400-
WASHINGTON METRO

CITY           SKY/WX    TMP DP  RH WIND       PRES   REMARKS
WASHINGTON NAT PTCLDY    31  14  49 W9        30.51S WCI  23
DULLES         PTCLDY    27  13  55 NW8       30.50S WCI  19
ANDREWS AFB    CLEAR     29  14  52 W16       30.48R WCI  17
QUANTICO       CLEAR     26  22  84 CALM      30.53S
COLLEGE PARK*  PTCLDY    30  14  51 CALM      30.50R
LEESBURG*      PTCLDY    30  19  64 CALM      30.49F
MANASSAS*      CLEAR    N/A N/A N/A CALM      30.52S
GAITHERSBURG*  CLOUDY    27  12  54 W9        30.50F WCI  17

$$

MDZ006>007-011-014-101400-
BALTIMORE METRO

CITY           SKY/WX    TMP DP  RH WIND       PRES   REMARKS
BWI AIRPORT    PTCLDY    28  17  63 W8        30.47S WCI  20
MD SCIENCE CTR   N/A     31  14  49 MISG      30.47F
MARTIN STATE   PTCLDY    30  19  64 W9        30.49S WCI  22
ANNAPOLIS      CLEAR     30  16  56 W6        30.49S
FORT MEADE*    CLEAR     25  19  80 W3        30.51S

$$

MDZ012-015-019>023-101400-
MARYLAND EASTERN SHORE

CITY           SKY/WX    TMP DP  RH WIND       PRES   REMARKS
OCEAN CITY     CLEAR     28  20  71 NW5       30.50R
SALISBURY      CLEAR     27  20  75 W5        30.49R
BAY BRIDGE AP*   N/A     30  18  59 MISG      30.49S
CAMBRIDGE*     CLEAR     32  18  55 NW7       30.49S
EASTON*        CLEAR     30  19  64 N6        30.52S

$$

MDZ017>025-101400-
SOUTHERN MARYLAND

CITY           SKY/WX    TMP DP  RH WIND       PRES   REMARKS
PATUXENT RIVER PTCLDY    29  16  58 W9        30.50S WCI  20
ST INIGOES     CLEAR     31  18  58 W7        30.50S
LEONARDTOWN*   CLEAR     28  18  64 W6        30.51S

$$

MDZ003>005-101400-
NORTH CENTRAL MARYLAND

CITY           SKY/WX    TMP DP  RH WIND       PRES   REMARKS
FREDERICK*     CLEAR     28  19  69 S3        30.51S
HAGERSTOWN APT CLOUDY    28  13  53 W6        30.45S
WESTMINSTER*     N/A     25  16  68 SW8       30.43S WCI  16

$$

MDZ501>502-101400-
WESTERN MARYLAND

CITY           SKY/WX    TMP DP  RH WIND       PRES   REMARKS
OAKLAND*       CLOUDY    14  12  92 W8        30.31S FOG     WCI   3
CUMBERLAND*    NOT AVBL

$$

VAZ025>031-101400-
SHENANDOAH VALLEY

CITY           SKY/WX    TMP DP  RH WIND       PRES   REMARKS
WINCHESTER*    CLEAR     27  12  54 SW5       30.46F
FRONT ROYAL*   FAIR      27  12  54 CALM      30.47F
LURAY*         FAIR      23  18  80 SW5       30.47F
NEW MARKET*    FAIR      18  12  77 CALM      30.47S
STAUNTON*      CLEAR     15  11  87 CALM      30.48F
WAYNESBORO*    FAIR      19   9  66 SW3       30.45S

$$

WVZ021-048>050-054>055-101400-
EASTERN WEST VIRGINIA PANHANDLE

CITY           SKY/WX    TMP DP  RH WIND       PRES   REMARKS
MARTINSBURG    PTCLDY    25  14  63 SW6       30.47S
PETERSBURG*    CLOUDY    26  15  61 W3        30.49R

$$

VAZ036>039-050-101400-
CENTRAL FOOTHILLS

CITY           SKY/WX    TMP DP  RH WIND       PRES   REMARKS
CHARLOTTESVILL PTCLDY    26  11  52 CALM      30.48F
CULPEPER*      CLEAR     25  15  64 CALM      30.51F
ORANGE*          N/A     21  18  86 CALM      30.51S
GORDONSVILLE*  FAIR      23  15  71 CALM      30.49S
WARRENTON*     FAIR      19  14  79 CALM      30.49F

$$

VAZ055>057-101400-
NORTH AND CENTRAL PIEDMONT

CITY           SKY/WX    TMP DP  RH WIND       PRES   REMARKS
FREDERICKSBRG* CLEAR     23  19  86 W3        30.52S
STAFFORD*      CLEAR     22  16  77 CALM      30.55S

$$

NCZ024-NYZ072-PAZ021-071-VAZ022-071-101400-
OTHER REGIONAL OBSERVATIONS

CITY           SKY/WX    TMP DP  RH WIND       PRES   REMARKS
NEW YORK CITY  CLEAR     29  15  56 VRB3      30.40R
PHILADELPHIA   MOCLDY    29  17  61 W9        30.46R WCI  20
PITTSBURGH     FLURRIES  25  18  74 W8        30.45R WCI  16
ROANOKE        PTCLDY    21  12  68 W6        30.51S
RICHMOND       PTCLDY    27  16  63 CALM      30.52S
RALEIGH        CLEAR     21  16  81 CALM      30.55R

$$

ANZ530>537-101400-
MARINE OBSERVATIONS

STATION/POSITION TIME  TEMP    WIND        PRES
                       AIR SEA DIR/SP/G
                 (UTC) (F)     (DEG/KT/KT) (MB)
THOMAS PT LIGHT  1300   31 46  290/ 16/ 17   N/A
BALT KEY BRIDGE  1248   30     280/ 10/ 14 1032.3R
COVE POINT       1248   29     320/ 12/ 16 1033.2R
LEWISETTA        1248   29 43  290/  7/  9 1033.1R
SOLOMONS ISLAND  1248   31 48  290/  9/ 12   N/A
PINEY POINT      1248          330/ 18/ 20   N/A

$$





USA.gov is the U.S. government's official web portal to all federal, state and local government web resources and services.